TimeMDT,TemperatureF,Dew PointF,Humidity,Sea Level PressureIn,VisibilityMPH,Wind Direction,Wind SpeedMPH,Gust SpeedMPH,PrecipitationIn,Events,Conditions,WindDirDegrees,DateUTC
12:53 AM,63.0,57.0,81,30.18,10.0,Calm,Calm,-,N/A,,Clear,0,2013-06-28 06:53:00
1:53 AM,60.1,57.0,90,30.19,10.0,Calm,Calm,-,N/A,,Clear,0,2013-06-28 07:53:00
2:53 AM,57.9,55.0,90,30.19,10.0,Calm,Calm,-,N/A,,Clear,0,2013-06-28 08:53:00
3:53 AM,55.9,54.0,93,30.18,10.0,SW,6.9,-,N/A,,Clear,220,2013-06-28 09:53:00
4:53 AM,57.0,54.0,89,30.18,10.0,Calm,Calm,-,N/A,,Clear,0,2013-06-28 10:53:00
5:53 AM,57.0,54.0,89,30.17,10.0,Calm,Calm,-,N/A,,Clear,0,2013-06-28 11:53:00
6:53 AM,61.0,55.9,83,30.17,10.0,WSW,8.1,-,N/A,,Clear,240,2013-06-28 12:53:00
7:53 AM,68.0,57.9,70,30.17,10.0,West,4.6,-,N/A,,Clear,270,2013-06-28 13:53:00
8:53 AM,73.0,60.1,64,30.17,10.0,Variable,4.6,-,N/A,,Clear,0,2013-06-28 14:53:00
9:53 AM,78.1,57.0,48,30.16,10.0,Calm,Calm,-,N/A,,Clear,0,2013-06-28 15:53:00
10:53 AM,84.0,51.1,32,30.15,10.0,NNW,3.5,-,N/A,,Clear,340,2013-06-28 16:53:00
11:53 AM,84.9,52.0,32,30.15,10.0,NE,12.7,18.4,N/A,,Clear,40,2013-06-28 17:53:00
12:53 PM,86.0,52.0,31,30.13,10.0,ENE,11.5,-,N/A,,Clear,70,2013-06-28 18:53:00
1:53 PM,88.0,50.0,27,30.12,10.0,ENE,9.2,21.9,N/A,,Clear,60,2013-06-28 19:53:00
2:53 PM,89.1,48.9,25,30.11,10.0,Variable,5.8,-,N/A,,Clear,0,2013-06-28 20:53:00
3:53 PM,88.0,51.1,28,30.10,10.0,ENE,8.1,21.9,N/A,,Clear,60,2013-06-28 21:53:00
4:53 PM,87.1,51.1,29,30.09,10.0,ENE,13.8,23.0,N/A,,Clear,70,2013-06-28 22:53:00
5:53 PM,86.0,52.0,31,30.08,10.0,ENE,13.8,-,N/A,,Clear,70,2013-06-28 23:53:00
6:53 PM,82.9,52.0,34,30.08,10.0,ENE,11.5,-,N/A,,Clear,70,2013-06-29 00:53:00
7:53 PM,80.1,52.0,38,30.08,10.0,ENE,10.4,-,N/A,,Clear,60,2013-06-29 01:53:00
8:53 PM,73.0,53.1,49,30.09,10.0,ENE,5.8,-,N/A,,Clear,60,2013-06-29 02:53:00
9:20 PM,69.8,53.6,56,30.16,10.0,ENE,3.5,-,N/A,,Partly Cloudy,60,2013-06-29 03:20:00
9:53 PM,68.0,53.1,59,30.10,10.0,Calm,Calm,-,N/A,,Clear,0,2013-06-29 03:53:00
10:53 PM,66.0,54.0,65,30.11,10.0,NNE,3.5,-,N/A,,Clear,20,2013-06-29 04:53:00
11:53 PM,64.0,54.0,70,30.13,10.0,WSW,4.6,-,N/A,,Clear,250,2013-06-29 05:53:00